Weather reports worldwide

Advertisment
Grenoble/St.Geoirs, France (7486): temperature & dewpoint: 16.07.2019 21:00:00 - 22.07.2019 21:00:00 (CEST)Grenoble/St.Geoirs, France (7486): temperature 5cm: 16.07.2019 21:00:00 - 22.07.2019 21:00:00 (CEST)Grenoble/St.Geoirs, France (7486): temperature -20cm & temperature -100cm: 16.07.2019 21:00:00 - 22.07.2019 21:00:00 (CEST)Grenoble/St.Geoirs, France (7486): wind speed & gusts: 16.07.2019 21:00:00 - 22.07.2019 21:00:00 (CEST)Grenoble/St.Geoirs, France (7486): wind direction: 16.07.2019 21:00:00 - 22.07.2019 21:00:00 (CEST)Grenoble/St.Geoirs, France (7486): reduced air pressure: 16.07.2019 21:00:00 - 22.07.2019 21:00:00 (CEST)Grenoble/St.Geoirs, France (7486): visibility: 16.07.2019 21:00:00 - 22.07.2019 21:00:00 (CEST)Grenoble/St.Geoirs, France (7486): sunshine duration: 16.07.2019 21:00:00 - 22.07.2019 21:00:00 (CEST)Grenoble/St.Geoirs, France (7486): precipitation: 16.07.2019 21:00:00 - 22.07.2019 21:00:00 (CEST)
Date & Time tt [°C] td [°C] tt 5cm [°C] tt -20cm [°C] tt -100cm [°C] ff [km/h] ff [kn] fx [km/h] fx [kn] dd ppp [hPa] vv [km] sd [min] rr [mm]
22.07.2019 21:00:00 29,2 15,0 27,5 24,2 19,2 9 5 14 8 N 1018,6 41 53 0,0
22.07.2019 20:00:00 32,4 14,1 33,8 24,0 19,2 8 5 20 11 N 1018,0 35 60 0,0
22.07.2019 19:00:00 33,7 13,7 38,0 23,8 19,2 11 6 21 12 NNE 1017,9 40 60 0,0
22.07.2019 18:00:00 33,4 14,5 38,6 23,5 19,2 11 6 28 15 N 1018,2 35 60 0,0
22.07.2019 17:00:00 34,0 13,5 41,0 23,2 19,1 13 7 33 18 NNW 1018,5 21 60 0,0
22.07.2019 16:00:00 33,6 15,1 38,1 23,0 19,1 8 4 23 13 NE 1018,8 28 60 0,0
22.07.2019 15:00:00 32,3 15,8 35,7 22,9 19,1 14 7 26 14 NNE 1019,5 29 36 0,0
22.07.2019 14:00:00 32,3 14,9 38,7 22,7 19,1 9 5 26 14 NE 1019,9 19 60 0,0
22.07.2019 13:00:00 31,4 15,8 36,5 22,7 19,1 8 5 21 12 N 1020,7 20 60 0,0
22.07.2019 12:00:00 30,3 15,6 35,6 22,7 19,1 9 5 18 10 N 1021,1 20 60 0,0
22.07.2019 11:00:00 29,4 14,8 33,8 22,8 19,1 9 5 29 16 N 1021,4 17 60 0,0
22.07.2019 10:00:00 27,3 16,0 27,6 23,0 19,1 6 4 21 11 NW 1021,6 31 58 0,0
22.07.2019 09:00:00 24,4 15,6 22,4 23,1 19,1 13 7 20 11 ENE 1022,0 20 29 0,0
22.07.2019 08:00:00 20,1 15,9 17,4 23,2 19,1 7 4 12 6 E 1022,4 20 0 0,0
22.07.2019 07:00:00 17,4 14,9 14,5 23,4 19,1 9 5 12 6 ENE 1023,0 18 0 0,0
22.07.2019 06:00:00 17,3 14,0 14,3 23,5 19,1 6 3 9 5 ESE 1023,1 19 0 0,0
22.07.2019 05:00:00 17,5 14,4 14,7 23,7 19,1 6 3 10 5 SE 1022,8 22 0 0,0
22.07.2019 04:00:00 17,7 14,2 15,1 23,8 19,1 6 4 12 6 E 1022,5 21 0 0,0
22.07.2019 03:00:00 18,4 14,7 15,9 23,9 19,1 6 4 10 5 E 1022,1 23 0 0,0
22.07.2019 02:00:00 19,8 14,6 17,2 23,9 19,1 4 2 12 6 SE 1021,8 24 0 0,0
22.07.2019 01:00:00 20,2 15,2 17,8 24,0 19,1 10 5 14 8 E 1021,7 27 0 0,0
22.07.2019 00:00:00 22,0 15,4 19,4 24,0 19,1 11 6 16 8 ESE 1021,5 29 0 0,0
21.07.2019 23:00:00 24,4 15,1 21,0 23,9 19,1 7 4 18 10 E 1021,0 31 0 0,0
21.07.2019 22:00:00 25,8 14,9 23,2 23,8 19,1 5 3 27 14 SSE 1020,1 15 0 0,0
21.07.2019 21:00:00 28,0 15,0 27,3 23,6 19,1 11 6 19 11 N 1019,2 40 31 0,0
21.07.2019 20:00:00 30,1 15,0 31,1 23,4 19,0 14 8 24 13 N 1018,5 42 58 0,0
21.07.2019 19:00:00 31,3 14,9 34,2 23,1 19,0 14 8 25 13 N 1018,3 39 58 0,0
21.07.2019 18:00:00 31,6 15,1 36,3 22,9 19,1 13 7 27 15 N 1018,0 42 60 0,0
21.07.2019 17:00:00 31,9 15,4 38,9 22,6 19,0 10 6 22 12 NNW 1018,5 20 60 0,0
21.07.2019 16:00:00 31,6 15,5 38,7 22,3 19,0 8 5 22 12 NNW 1018,9 43 60 0,0
21.07.2019 15:00:00 31,0 15,8 37,7 22,2 19,0 10 5 22 12 NNW 1019,3 20 58 0,0
21.07.2019 14:00:00 30,3 16,0 36,1 22,0 19,0 8 5 25 13 SSW 1019,7 20 60 0,0
21.07.2019 13:00:00 29,7 14,3 34,3 21,9 19,0 5 3 18 10 WNW 1020,2 54 60 0,0
21.07.2019 12:00:00 28,1 13,6 33,8 21,9 19,0 6 4 18 10 S 1020,5 18 60 0,0
21.07.2019 11:00:00 26,5 13,3 31,6 22,0 19,0 9 5 20 11 W 1020,9 40 56 0,0
21.07.2019 10:00:00 26,3 12,4 29,7 22,1 19,0 4 2 12 6 SSE 1020,7 17 60 0,0
21.07.2019 09:00:00 24,2 13,1 21,6 22,2 19,0 5 3 11 6 E 1020,7 36 49 0,0
21.07.2019 08:00:00 20,6 12,8 18,9 22,3 19,0 6 3 11 6 ENE 1021,2 31 7 0,0
21.07.2019 07:00:00 18,7 12,7 16,4 22,4 19,0 6 4 8 5 ESE 1021,3 26 0 0,0
21.07.2019 06:00:00 18,0 11,8 16,0 22,5 19,0 6 3 8 5 E 1020,7 26 0 0,0
21.07.2019 05:00:00 18,2 11,7 16,6 22,6 19,0 8 4 11 6 E 1020,4 31 0 0,0
21.07.2019 04:00:00 18,8 11,1 16,5 22,7 19,0 7 4 14 8 NNE 1020,2 33 0 0,0
21.07.2019 03:00:00 21,8 10,9 19,2 22,8 19,0 6 3 27 15 WNW 1019,8 38 0 0,0
21.07.2019 02:00:00 23,3 11,4 21,1 22,9 19,0 20 11 29 16 S 1019,6 40 0 0,0
21.07.2019 01:00:00 23,0 12,0 21,4 23,0 19,0 10 5 24 13 SSW 1019,6 40 0 0,0
21.07.2019 00:00:00 23,8 11,5 22,5 23,0 19,0 12 7 27 15 SW 1018,9 39 0 0,0
20.07.2019 23:00:00 25,4 10,0 23,1 23,0 19,0 13 7 29 16 SW 1018,0 42 0 0,0
20.07.2019 22:00:00 25,2 12,8 22,7 22,9 19,0 9 5 23 12 WSW 1017,1 18 0 0,0
20.07.2019 21:00:00 25,7 14,2 24,3 22,9 19,0 10 6 24 13 WSW 1016,0 27 0 0,0
20.07.2019 20:00:00 26,3 14,4 25,9 22,8 19,0 10 5 29 15 W 1015,6 26 19 0,0
20.07.2019 19:00:00 27,0 13,7 26,7 22,6 19,0 17 9 30 16 SSW 1015,4 20 0 0,0
20.07.2019 18:00:00 26,4 13,8 25,9 22,5 18,9 15 8 45 24 SW 1016,1 11 9 0,0
20.07.2019 17:00:00 29,2 13,8 28,1 22,3 19,0 20 11 41 22 SSW 1015,2 29 18 0,0
20.07.2019 16:00:00 27,4 13,0 28,1 22,2 18,9 21 11 39 21 SSW 1015,5 15 25 0,0
20.07.2019 15:00:00 29,3 14,7 29,6 22,1 19,0 22 12 34 19 SW 1015,3 26 52 0,0
20.07.2019 14:00:00 27,3 13,3 29,5 22,0 19,0 14 8 41 22 SW 1016,0 29 6 0,0
20.07.2019 13:00:00 28,5 10,7 30,4 22,0 19,0 26 14 46 25 SW 1016,3 20 43 0,0
20.07.2019 12:00:00 28,8 11,4 30,8 22,0 18,9 25 14 43 23 SSW 1016,5 24 60 0,0
20.07.2019 11:00:00 26,1 13,6 29,1 22,1 18,9 20 11 34 18 SSW 1016,9 28 60 0,0
20.07.2019 10:00:00 24,5 12,4 27,4 22,2 19,0 18 10 27 14 SW 1016,6 20 60 0,0
20.07.2019 09:00:00 22,4 11,2 25,8 22,3 18,9 8 4 13 7 W 1015,9 42 60 0,0
20.07.2019 08:00:00 21,6 11,0 18,9 22,5 18,9 4 2 8 4 NE 1015,6 30 60 0,0
20.07.2019 07:00:00 17,6 10,7 13,2 22,6 18,9 8 4 13 7 NE 1016,1 26 26 0,0
20.07.2019 06:00:00 17,4 10,0 13,1 22,8 18,9 2 1 12 6 WNW 1016,2 34 0 0,0
20.07.2019 05:00:00 18,8 10,1 16,0 23,0 18,9 9 5 18 10 S 1015,5 37 0 0,0
20.07.2019 04:00:00 19,4 10,4 16,0 23,1 18,9 8 5 24 13 SW 1015,2 40 0 0,0
20.07.2019 03:00:00 19,7 9,3 16,8 23,1 18,9 7 4 17 9 WNW 1015,1 39 0 0,0
20.07.2019 02:00:00 22,2 9,4 19,1 23,2 18,9 8 4 34 18 NE 1014,8 44 0 0,0
20.07.2019 01:00:00 23,1 10,2 18,9 23,3 18,9 8 4 21 12 W 1014,7 41 0 0,0
20.07.2019 00:00:00 22,1 12,4 15,3 23,3 18,9 9 5 17 9 WNW 1014,7 31 0 0,0
19.07.2019 23:00:00 18,1 12,3 15,5 23,2 18,9 11 6 14 8 E 1015,0 19 0 0,0
19.07.2019 22:00:00 20,0 12,0 16,4 23,1 18,9 11 6 13 7 E 1014,3 32 0 0,0
19.07.2019 21:00:00 27,5 10,2 23,4 22,9 18,9 3 1 9 5 SSE 1012,9 19 54 0,0
19.07.2019 20:00:00 29,6 9,7 32,6 22,7 18,9 5 3 13 7 NW 1012,5 44 60 0,0
19.07.2019 19:00:00 30,3 10,8 34,6 22,4 18,9 5 3 19 10 W 1012,5 46 60 0,0
19.07.2019 18:00:00 30,0 10,5 36,1 22,1 18,9 9 5 23 13 W 1012,9 43 60 0,0
19.07.2019 17:00:00 29,6 10,7 36,9 21,9 18,9 10 6 19 10 WNW 1013,3 44 60 0,0
19.07.2019 16:00:00 29,0 11,5 36,0 21,7 18,9 10 5 19 10 WSW 1013,8 20 60 0,0
19.07.2019 15:00:00 28,1 12,0 35,9 21,5 18,9 8 5 25 14 W 1014,3 44 60 0,0
19.07.2019 14:00:00 28,2 13,3 33,5 21,3 18,9 8 4 22 12 NE 1014,9 35 60 0,0
19.07.2019 13:00:00 25,8 11,9 32,6 21,3 18,9 9 5 26 14 NNW 1015,7 34 60 0,0
19.07.2019 12:00:00 25,4 12,3 29,6 21,4 18,9 8 5 22 12 NE 1016,1 31 60 0,0
19.07.2019 11:00:00 23,7 12,0 27,1 21,4 18,9 13 7 29 16 N 1016,6 26 60 0,0
19.07.2019 10:00:00 22,5 12,1 26,5 21,5 18,9 15 8 26 14 N 1016,9 25 60 0,0
19.07.2019 09:00:00 20,3 11,5 25,7 21,7 18,9 5 3 10 6 W 1017,4 28 60 0,0
19.07.2019 08:00:00 18,6 11,7 17,1 21,8 18,9 0 0 14 7 N 1017,3 17 60 0,0
19.07.2019 07:00:00 15,3 9,9 11,4 22,0 18,9 5 3 11 6 S 1017,6 27 27 0,0
19.07.2019 06:00:00 13,9 9,3 11,0 22,2 18,9 8 4 13 7 SE 1017,9 26 0 0,0
19.07.2019 05:00:00 14,4 9,2 12,1 22,3 18,9 6 3 13 7 SE 1017,7 31 0 0,0
19.07.2019 04:00:00 18,8 9,3 14,0 22,4 18,9 7 4 16 9 NNW 1016,8 34 0 0,0
19.07.2019 03:00:00 17,0 9,2 12,7 22,5 18,9 4 2 14 7 ENE 1017,1 33 0 0,0
19.07.2019 02:00:00 16,2 9,4 11,9 22,6 18,9 5 3 12 6 SE 1017,1 34 0 0,0
19.07.2019 01:00:00 16,8 8,7 13,5 22,6 18,8 7 4 16 9 NW 1016,9 39 0 0,0
19.07.2019 00:00:00 19,3 9,2 14,9 22,7 18,9 6 3 14 8 E 1015,9 40 0 0,0
18.07.2019 23:00:00 21,6 9,2 19,3 22,6 18,8 4 2 24 13 E 1015,1 37 0 0,0
18.07.2019 22:00:00 22,8 9,9 21,2 22,5 18,8 14 8 24 13 N 1014,3 39 0 0,0
18.07.2019 21:00:00 24,3 10,9 23,7 22,4 18,9 16 8 32 17 N 1013,2 34 19 0,0
18.07.2019 20:00:00 26,6 10,7 27,6 22,3 18,9 20 11 31 17 N 1012,2 20 60 0,0
18.07.2019 19:00:00 28,3 8,6 31,7 22,1 18,9 13 7 31 17 N 1011,6 33 60 0,0
18.07.2019 18:00:00 29,0 8,1 34,0 21,9 18,9 11 6 24 13 NNW 1011,5 39 60 0,0
18.07.2019 17:00:00 29,1 8,7 32,6 21,7 18,9 14 7 27 15 NW 1011,5 47 56 0,0
18.07.2019 16:00:00 28,5 8,2 32,0 21,5 18,9 9 5 24 13 N 1011,8 38 24 0,0
18.07.2019 15:00:00 28,0 8,3 33,5 21,3 18,8 13 7 32 17 N 1011,9 20 55 0,0
18.07.2019 14:00:00 28,1 9,4 33,7 21,2 18,8 14 7 28 15 N 1012,2 20 60 0,0
18.07.2019 13:00:00 26,8 9,2 32,8 21,2 18,9 12 7 24 13 NNW 1012,8 20 60 0,0
18.07.2019 12:00:00 25,7 8,7 31,3 21,2 18,8 14 7 27 14 WNW 1013,0 38 60 0,0
18.07.2019 11:00:00 24,9 9,2 29,2 21,3 18,8 11 6 27 15 NNW 1013,1 34 58 0,0
18.07.2019 10:00:00 23,5 8,4 26,5 21,4 18,8 13 7 27 15 NW 1013,4 26 60 0,0
18.07.2019 09:00:00 22,3 8,4 23,8 21,6 18,8 2 1 10 5 W 1013,4 27 60 0,0
18.07.2019 08:00:00 18,2 10,6 15,0 21,7 18,8 6 3 10 6 SE 1013,8 27 60 0,0
18.07.2019 07:00:00 13,6 9,2 9,1 21,9 18,8 9 5 13 7 ESE 1014,4 24 28 0,0
18.07.2019 06:00:00 10,9 7,8 9,0 22,1 18,8 12 7 14 8 E 1014,5 28 0 0,0
18.07.2019 05:00:00 11,7 7,8 9,9 22,2 18,8 7 4 12 7 E 1014,1 27 0 0,0
18.07.2019 04:00:00 13,3 8,4 10,9 22,3 18,8 10 6 12 7 E 1013,9 28 0 0,0
18.07.2019 03:00:00 14,3 8,7 11,2 22,5 18,8 8 5 10 6 E 1013,7 26 0 0,0
18.07.2019 02:00:00 15,4 9,5 11,9 22,6 18,9 6 3 11 6 E 1013,8 25 0 0,0
18.07.2019 01:00:00 15,7 9,8 12,4 22,6 18,8 7 4 12 7 ESE 1013,9 27 0 0,0
18.07.2019 00:00:00 16,0 9,4 12,5 22,6 18,8 9 5 11 6 ESE 1013,6 27 0 0,0
17.07.2019 23:00:00 17,9 10,3 14,3 22,6 18,8 7 4 12 6 ESE 1013,2 25 0 0,0
17.07.2019 22:00:00 20,4 10,2 15,0 22,5 18,8 6 3 12 6 E 1012,2 33 0 0,0
17.07.2019 21:00:00 23,7 9,7 21,2 22,3 18,8 8 5 13 7 NNE 1011,3 42 34 0,0
17.07.2019 20:00:00 26,8 7,8 26,9 22,1 18,8 9 5 21 11 NNE 1010,8 46 45 0,0
17.07.2019 19:00:00 28,2 6,9 31,8 21,9 18,8 13 7 29 15 N 1010,7 58 60 0,0
17.07.2019 18:00:00 28,6 6,0 34,3 21,6 18,8 11 6 28 15 NNE 1011,0 20 60 0,0
17.07.2019 17:00:00 29,1 4,5 36,4 21,4 18,8 11 6 32 17 NNW 1011,3 55 60 0,0
17.07.2019 16:00:00 28,9 5,7 36,5 21,2 18,8 18 10 27 15 NW 1011,7 29 60 0,0
17.07.2019 15:00:00 28,4 6,5 35,5 21,0 18,8 12 7 26 14 N 1012,0 27 60 0,0
17.07.2019 14:00:00 28,2 6,3 33,7 20,8 18,8 14 7 34 18 NW 1012,4 27 60 0,0
17.07.2019 13:00:00 26,9 8,8 31,0 20,8 18,8 9 5 42 23 N 1013,0 26 60 0,0
17.07.2019 12:00:00 25,6 11,4 30,8 20,8 18,8 5 3 16 8 W 1013,5 27 60 0,0
17.07.2019 11:00:00 24,2 11,5 28,4 20,9 18,8 4 2 12 6 WNW 1014,1 19 60 0,0
17.07.2019 10:00:00 21,0 11,1 25,3 21,0 18,8 3 2 12 6 WSW 1014,8 25 60 0,0
17.07.2019 09:00:00 18,9 10,7 22,3 21,1 18,8 5 3 11 6 SW 1015,1 17 60 0,0
17.07.2019 08:00:00 16,2 9,6 14,1 21,3 18,8 2 1 11 6 W 1015,4 34 60 0,0
17.07.2019 07:00:00 12,1 9,5 7,3 21,5 18,8 8 4 11 6 E 1015,8 24 29 0,0
17.07.2019 06:00:00 10,8 8,2 7,3 21,6 18,9 4 2 12 6 E 1016,0 24 0 0,0
17.07.2019 05:00:00 10,9 7,4 7,6 21,8 18,9 5 3 12 7 E 1015,7 26 0 0,0
17.07.2019 04:00:00 13,0 8,9 9,4 21,9 18,9 8 5 13 7 E 1015,5 25 0 0,0
17.07.2019 03:00:00 12,6 9,2 9,1 22,0 18,9 4 2 14 8 E 1016,1 26 0 0,0
17.07.2019 02:00:00 14,8 9,2 9,6 22,1 18,9 2 1 10 5 E 1016,0 29 0 0,0
17.07.2019 01:00:00 15,2 10,4 12,3 22,1 18,9 9 5 16 9 E 1015,6 32 0 0,0
17.07.2019 00:00:00 17,7 10,6 14,6 22,1 18,9 9 5 13 7 SE 1015,2 35 0 0,0
16.07.2019 23:00:00 18,3 11,4 15,3 22,1 18,9 7 4 13 7 SSE 1015,3 29 0 0,0
16.07.2019 22:00:00 21,0 11,1 16,5 22,0 18,9 4 2 13 7 ESE 1014,5 16 0 0,0
16.07.2019 21:00:00 24,6 11,2 22,7 21,8 18,9 5 3 12 6 NNW 1013,9 33 39 0,0

tt = temperature
td = dewpoint
tt 5cm = temperature 5cm
tt -20cm = temperature -20cm
tt -100cm = temperature -100cm
ff = wind speed
fx = gusts
dd = wind direction
ppp = reduced air pressure
vv = visibility
sd = sunshine duration
rr = precipitation

Next stations